"Pseudo-MPEC" for ST25A02

Created 2025 Jan 22 23:31:17 UT using Find_Orb

Click here for an explanation of pseudo-MPECs

 
 Astrometry: 
     ST25A02* C2025 01 05.29894004 23 52.914+02 24 38.43   ~19MH 19.3 GVNEOCPU68
     ST25A02  C2025 01 05.30274004 23 53.184+02 24 30.77   ~19MH 19.3 GVNEOCPU68
     ST25A02  C2025 01 05.31917704 23 54.340+02 24 08.62   ~19MH 20.0 GVNEOCPU68
     ST25A02  C2025 01 05.32295704 23 54.646+02 24 00.53   ~19MH 20.0 GVNEOCPU68

Station data:
(U68) JPL SynTrack Robotic Telescope, Auberry  (N37.070387 W119.412990)
   US/California.  Observers N. Saini, C. Zhai, R. Trahan, M. Zhan, M. Shao.
   0.28-m f/2.2 Schmidt + CCD.

Orbital elements:  ST25A02
   Perihelion 2025 Jan 31.50870 +/- 46.5 TT = 12:12:31 (JD 2460707.00870)
Epoch 2025 Jan  5.0 TT = JDT 2460680.5   Earth MOID: 0.1880   Ma: 0.0109
M 353.94685547 +/- 43               (J2000 ecliptic)             AutoNEOCP
n   0.22834556 +/- 0.266            Peri.  243.62220 +/- 120
a   2.65098741 +/- 2.06             Node   239.74153 +/- 38
e   0.5705155 +/- 0.17              Incl.    6.62911 +/- 8
P   4.31630                H 21.07  G  0.15   U 11.9  SR
q 1.13855782 +/- 0.28    Q 4.16341700 +/- 1.45
From 4 observations 2025 Jan. 5 (34.6 min); mean residual 0".80
Residuals in arcseconds: 
250105 U68  .04+  .77+    250105 U68  .29-  1.4+    
250105 U68  .03+  1.2-    250105 U68  .21+  1.0-    

Ephemerides (geocentric):
Date (UTC) HH   RA             Dec           delta  r     elong  mag " sig PA
---- --------  ------------   ------------  ------ ------ -----  --- --------
2025 01 23 00  05 01 19.681   -03 49 19.06  .24278 1.1433 125.8 20.0  34d  85
2025 01 23 01  05 01 26.855   -03 50 00.46  .24276 1.1432 125.7 20.0  34d  85
2025 01 23 02  05 01 34.037   -03 50 41.79  .24275 1.1432 125.7 20.0  34d  85
2025 01 23 03  05 01 41.228   -03 51 23.06  .24274 1.1431 125.7 20.0  34d  85
2025 01 23 04  05 01 48.427   -03 52 04.26  .24273 1.1431 125.7 20.0  34d  85
2025 01 23 05  05 01 55.635   -03 52 45.41  .24272 1.1430 125.7 20.0  35d  85
2025 01 23 06  05 02 02.852   -03 53 26.49  .24271 1.1430 125.7 20.0  35d  85
2025 01 23 07  05 02 10.077   -03 54 07.51  .24270 1.1429 125.7 20.0  35d  85
2025 01 23 08  05 02 17.311   -03 54 48.47  .24269 1.1429 125.6 20.0  35d  85
2025 01 23 09  05 02 24.553   -03 55 29.37  .24268 1.1429 125.6 20.0  35d  85
2025 01 23 10  05 02 31.804   -03 56 10.21  .24267 1.1428 125.6 20.0  35d  85
2025 01 23 11  05 02 39.063   -03 56 50.98  .24266 1.1428 125.6 20.0  35d  85
2025 01 23 12  05 02 46.331   -03 57 31.69  .24265 1.1427 125.6 20.0  35d  85
2025 01 23 13  05 02 53.608   -03 58 12.34  .24264 1.1427 125.6 20.0  35d  85
2025 01 23 14  05 03 00.893   -03 58 52.92  .24263 1.1426 125.6 20.0  35d  85
2025 01 23 15  05 03 08.187   -03 59 33.44  .24262 1.1426 125.5 20.0  35d  85
2025 01 23 16  05 03 15.489   -04 00 13.90  .24261 1.1426 125.5 20.0  35d  85
2025 01 23 17  05 03 22.800   -04 00 54.30  .24260 1.1425 125.5 20.0  35d  85
2025 01 23 18  05 03 30.120   -04 01 34.64  .24260 1.1425 125.5 20.0  35d  85
2025 01 23 19  05 03 37.447   -04 02 14.91  .24259 1.1424 125.5 20.0  35d  85
2025 01 23 20  05 03 44.784   -04 02 55.12  .24258 1.1424 125.5 20.0  35d  85
2025 01 23 21  05 03 52.129   -04 03 35.27  .24257 1.1423 125.5 20.0  35d  85
2025 01 23 22  05 03 59.482   -04 04 15.35  .24256 1.1423 125.5 20.0  35d  85
2025 01 23 23  05 04 06.845   -04 04 55.37  .24255 1.1423 125.4 20.0  35d  85
2025 01 24 00  05 04 14.215   -04 05 35.33  .24254 1.1422 125.4 20.0  35d  85
2025 01 24 01  05 04 21.594   -04 06 15.23  .24253 1.1422 125.4 20.0  36d  85
2025 01 24 02  05 04 28.982   -04 06 55.06  .24253 1.1421 125.4 20.0  36d  85
2025 01 24 03  05 04 36.378   -04 07 34.83  .24252 1.1421 125.4 20.0  36d  85
2025 01 24 04  05 04 43.783   -04 08 14.53  .24251 1.1421 125.4 20.0  36d  85
2025 01 24 05  05 04 51.196   -04 08 54.18  .24250 1.1420 125.4 20.0  36d  85
2025 01 24 06  05 04 58.618   -04 09 33.76  .24249 1.1420 125.4 20.0  36d  85
2025 01 24 07  05 05 06.048   -04 10 13.27  .24249 1.1419 125.3 20.0  36d  85
2025 01 24 08  05 05 13.486   -04 10 52.73  .24248 1.1419 125.3 20.0  36d  85
2025 01 24 09  05 05 20.934   -04 11 32.12  .24247 1.1419 125.3 20.0  36d  85
2025 01 24 10  05 05 28.389   -04 12 11.44  .24246 1.1418 125.3 20.0  36d  85
2025 01 24 11  05 05 35.853   -04 12 50.71  .24246 1.1418 125.3 20.0  36d  85
2025 01 24 12  05 05 43.326   -04 13 29.91  .24245 1.1417 125.3 20.0  36d  85
2025 01 24 13  05 05 50.807   -04 14 09.04  .24244 1.1417 125.3 20.0  36d  85
2025 01 24 14  05 05 58.297   -04 14 48.12  .24244 1.1417 125.2 20.0  36d  85
2025 01 24 15  05 06 05.795   -04 15 27.13  .24243 1.1416 125.2 20.0  36d  85
2025 01 24 16  05 06 13.301   -04 16 06.07  .24242 1.1416 125.2 20.0  36d  85
2025 01 24 17  05 06 20.816   -04 16 44.95  .24242 1.1416 125.2 20.0  36d  85
2025 01 24 18  05 06 28.340   -04 17 23.77  .24241 1.1415 125.2 20.0  36d  85
2025 01 24 19  05 06 35.872   -04 18 02.53  .24240 1.1415 125.2 20.0  36d  85
2025 01 24 20  05 06 43.412   -04 18 41.22  .24240 1.1415 125.2 20.0  36d  85
2025 01 24 21  05 06 50.961   -04 19 19.85  .24239 1.1414 125.2 20.0  36d  85
2025 01 24 22  05 06 58.518   -04 19 58.41  .24238 1.1414 125.2 20.0  36d  85
2025 01 24 23  05 07 06.083   -04 20 36.91  .24238 1.1413 125.1 20.0  37d  85